• In Hungary
  • List of Countries
  • For 7 days
  • Water Temperature
  • Satellite Maps
  • Weather Map
  • News
  • Weather Widgets
  • user-avatar
    Login

    Hourly Weather Grabonovo

    Today, 25 May, Friday

    Time Temperature Precipitation Wind Pressure Humidity
    00:00 +14°C° 0 mm 4 mps 748 mmHg 82%
    01:00 +13°C° 0 mm 4 mps 748 mmHg 85%
    02:00 +13°C° 0 mm 4 mps 748 mmHg 88%
    03:00 +12°C° 0 mm 3 mps 748 mmHg 95%
    04:00 +12°C° 0 mm 4 mps 749 mmHg 93%
    05:00 +12°C° 0 mm 5 mps 749 mmHg 92%
    06:00 +12°C° 0 mm 5 mps 749 mmHg 91%
    07:00 +14°C° 0 mm 6 mps 749 mmHg 84%
    08:00 +15°C° 0 mm 6 mps 750 mmHg 78%
    09:00 +16°C° 0 mm 6 mps 750 mmHg 72%
    10:00 +16°C° 0 mm 6 mps 750 mmHg 66%
    11:00 +17°C° 0 mm 6 mps 750 mmHg 60%
    12:00 +17°C° 0 mm 7 mps 751 mmHg 54%
    13:00 +18°C° 0 mm 7 mps 751 mmHg 53%
    14:00 +19°C° 0 mm 6 mps 751 mmHg 51%
    15:00 +19°C° 0 mm 6 mps 751 mmHg 49%
    16:00 +17°C° 0 mm 6 mps 751 mmHg 53%
    17:00 +17°C° 0 mm 5 mps 752 mmHg 56%
    18:00 +16°C° 0 mm 5 mps 752 mmHg 60%
    19:00 +15°C° 0 mm 5 mps 752 mmHg 62%
    20:00 +13°C° 0 mm 4 mps 753 mmHg 65%
    21:00 +12°C° 0 mm 4 mps 753 mmHg 67%
    22:00 +11°C° 0 mm 4 mps 754 mmHg 67%
    23:00 +10°C° 0 mm 4 mps 754 mmHg 67%

    Tomorrow, 26 May, Saturday

    Time Temperature Precipitation Wind Pressure Humidity
    00:00 +10°C° 0 mm 4 mps 755 mmHg 67%
    01:00 +8°C° 0 mm 4 mps 755 mmHg 67%
    02:00 +8°C° 0 mm 3 mps 756 mmHg 68%
    03:00 +7°C° 0 mm 3 mps 756 mmHg 69%
    04:00 +8°C° 0 mm 3 mps 757 mmHg 70%
    05:00 +8°C° 0 mm 3 mps 757 mmHg 71%
    06:00 +8°C° 0 mm 3 mps 758 mmHg 73%
    07:00 +10°C° 0 mm 3 mps 758 mmHg 66%
    08:00 +11°C° 0 mm 3 mps 759 mmHg 59%
    09:00 +13°C° 0 mm 3 mps 759 mmHg 53%
    10:00 +14°C° 0 mm 4 mps 759 mmHg 51%
    11:00 +15°C° 0 mm 4 mps 759 mmHg 49%
    12:00 +17°C° 0 mm 4 mps 759 mmHg 46%
    13:00 +17°C° 0 mm 4 mps 759 mmHg 46%
    14:00 +18°C° 0 mm 3 mps 759 mmHg 45%
    15:00 +18°C° 0 mm 3 mps 758 mmHg 45%
    16:00 +18°C° 0 mm 2 mps 758 mmHg 46%
    17:00 +18°C° 0 mm 2 mps 758 mmHg 48%
    18:00 +19°C° 0 mm 1 mps 758 mmHg 50%
    19:00 +16°C° 0 mm 1 mps 758 mmHg 55%
    20:00 +14°C° 0 mm 1 mps 758 mmHg 60%
    21:00 +12°C° 0 mm 1 mps 758 mmHg 64%
    22:00 +12°C° 0 mm 2 mps 758 mmHg 66%
    23:00 +10°C° 0 mm 2 mps 758 mmHg 68%

    Day after tomorrow, 27 May, Sunday

    Time Temperature Precipitation Wind Pressure Humidity
    00:00 +9°C° 0 mm 2 mps 758 mmHg 70%
    01:00 +9°C° 0 mm 2 mps 758 mmHg 71%
    02:00 +9°C° 0 mm 2 mps 758 mmHg 73%
    03:00 +8°C° 0 mm 2 mps 758 mmHg 74%
    04:00 +9°C° 0 mm 2 mps 758 mmHg 74%
    05:00 +9°C° 0 mm 2 mps 758 mmHg 75%
    06:00 +10°C° 0 mm 2 mps 758 mmHg 75%
    07:00 +12°C° 0 mm 2 mps 758 mmHg 70%
    08:00 +14°C° 0 mm 2 mps 758 mmHg 65%
    09:00 +16°C° 0 mm 3 mps 758 mmHg 60%
    10:00 +17°C° 0 mm 3 mps 757 mmHg 56%
    11:00 +18°C° 0 mm 3 mps 757 mmHg 53%
    12:00 +19°C° 0 mm 3 mps 757 mmHg 50%
    13:00 +19°C° 0 mm 4 mps 756 mmHg 51%
    14:00 +20°C° 0 mm 4 mps 755 mmHg 51%
    15:00 +20°C° 0 mm 4 mps 755 mmHg 51%
    16:00 +20°C° 0 mm 4 mps 754 mmHg 55%
    17:00 +20°C° 0 mm 4 mps 754 mmHg 59%
    18:00 +19°C° 0 mm 4 mps 753 mmHg 63%
    19:00 +18°C° 0 mm 4 mps 753 mmHg 67%
    20:00 +15°C° 0 mm 4 mps 753 mmHg 72%
    21:00 +13°C° 0 mm 3 mps 752 mmHg 76%
    22:00 +13°C° 0 mm 4 mps 752 mmHg 77%
    23:00 +13°C° 0 mm 4 mps 752 mmHg 77%

    28 May, Monday

    Time Temperature Precipitation Wind Pressure Humidity
    00:00 +12°C° 0 mm 4 mps 753 mmHg 78%
    01:00 +12°C° 0 mm 3 mps 753 mmHg 81%
    02:00 +11°C° 0 mm 3 mps 753 mmHg 85%
    03:00 +11°C° 0 mm 3 mps 753 mmHg 88%
    04:00 +11°C° 0 mm 3 mps 753 mmHg 87%
    05:00 +11°C° 0 mm 3 mps 754 mmHg 85%
    06:00 +11°C° 0 mm 3 mps 754 mmHg 84%
    07:00 +13°C° 0 mm 3 mps 754 mmHg 76%
    08:00 +14°C° 0 mm 3 mps 754 mmHg 68%
    09:00 +17°C° 0 mm 3 mps 755 mmHg 59%
    10:00 +17°C° 0 mm 4 mps 755 mmHg 56%
    11:00 +18°C° 0 mm 4 mps 755 mmHg 53%
    12:00 +19°C° 0 mm 4 mps 755 mmHg 50%
    13:00 +19°C° 0 mm 4 mps 755 mmHg 49%
    14:00 +19°C° 0 mm 4 mps 755 mmHg 49%
    15:00 +20°C° 0 mm 4 mps 755 mmHg 48%
    16:00 +19°C° 0 mm 4 mps 755 mmHg 51%
    17:00 +19°C° 0 mm 3 mps 755 mmHg 54%
    18:00 +18°C° 0 mm 3 mps 755 mmHg 57%
    19:00 +16°C° 0 mm 3 mps 755 mmHg 59%
    20:00 +13°C° 0 mm 3 mps 756 mmHg 62%
    21:00 +11°C° 0 mm 3 mps 756 mmHg 65%
    22:00 +10°C° 0 mm 2 mps 756 mmHg 65%
    23:00 +9°C° 0 mm 2 mps 756 mmHg 65%

    29 May, Tuesday

    Time Temperature Precipitation Wind Pressure Humidity
    00:00 +8°C° 0 mm 2 mps 757 mmHg 65%
    01:00 +8°C° 0 mm 2 mps 757 mmHg 65%
    02:00 +9°C° 0 mm 1 mps 757 mmHg 65%
    03:00 +8°C° 0 mm 1 mps 757 mmHg 65%
    04:00 +9°C° 0 mm 1 mps 757 mmHg 66%
    05:00 +9°C° 0 mm 2 mps 757 mmHg 66%
    06:00 +9°C° 0 mm 2 mps 757 mmHg 67%
    07:00 +12°C° 0 mm 2 mps 757 mmHg 63%
    08:00 +13°C° 0 mm 3 mps 757 mmHg 59%
    09:00 +15°C° 0 mm 4 mps 757 mmHg 55%
    10:00 +18°C° 0 mm 4 mps 757 mmHg 53%
    11:00 +19°C° 0 mm 4 mps 756 mmHg 51%
    12:00 +20°C° 0 mm 4 mps 756 mmHg 49%
    13:00 +21°C° 0 mm 4 mps 756 mmHg 49%
    14:00 +22°C° 0 mm 4 mps 755 mmHg 49%
    15:00 +22°C° 0 mm 4 mps 755 mmHg 49%
    16:00 +22°C° 0 mm 4 mps 755 mmHg 53%
    17:00 +22°C° 0 mm 3 mps 754 mmHg 57%
    18:00 +22°C° 0 mm 3 mps 754 mmHg 61%
    19:00 +20°C° 0 mm 3 mps 754 mmHg 65%
    20:00 +18°C° 0 mm 3 mps 753 mmHg 69%
    21:00 +16°C° 0 mm 3 mps 753 mmHg 73%
    22:00 +16°C° 0 mm 3 mps 753 mmHg 74%
    23:00 +14°C° 0 mm 3 mps 753 mmHg 75%

    30 May, Wednesday

    Time Temperature Precipitation Wind Pressure Humidity
    00:00 +13°C° 0 mm 3 mps 753 mmHg 76%
    01:00 +13°C° 0 mm 3 mps 753 mmHg 76%
    02:00 +12°C° 0 mm 3 mps 752 mmHg 76%
    03:00 +12°C° 0 mm 3 mps 752 mmHg 77%
    04:00 +12°C° 0 mm 4 mps 752 mmHg 76%
    05:00 +13°C° 0 mm 4 mps 751 mmHg 76%
    06:00 +13°C° 0 mm 5 mps 751 mmHg 75%
    07:00 +15°C° 0 mm 5 mps 750 mmHg 72%
    08:00 +17°C° 0 mm 6 mps 750 mmHg 69%
    09:00 +20°C° 0 mm 6 mps 750 mmHg 65%
    10:00 +21°C° 0 mm 6 mps 749 mmHg 63%
    11:00 +22°C° 0 mm 7 mps 748 mmHg 61%
    12:00 +23°C° 0 mm 7 mps 748 mmHg 58%
    13:00 +24°C° 0 mm 7 mps 747 mmHg 58%
    14:00 +24°C° 0 mm 7 mps 747 mmHg 57%
    15:00 +26°C° 0 mm 7 mps 746 mmHg 57%
    16:00 +24°C° 0 mm 7 mps 746 mmHg 60%
    17:00 +24°C° 0 mm 6 mps 745 mmHg 63%
    18:00 +25°C° 0 mm 5 mps 745 mmHg 66%
    19:00 +22°C° 0 mm 5 mps 745 mmHg 70%
    20:00 +21°C° 0 mm 5 mps 744 mmHg 73%
    21:00 +19°C° 0 mm 4 mps 744 mmHg 76%
    22:00 +19°C° 0 mm 5 mps 744 mmHg 77%
    23:00 +17°C° 0 mm 5 mps 744 mmHg 78%
    Show more